2403 visiteurs
Prévisions de votre ville :
Vigilance : 38 départements 42 départements Mise à jour le 14/10/2019 à 10:12 - Voir la carte

Paris Roissy CDG (95380) le 14/10/2019 à 12:30 Choisir station

21°C 60 % SSE Vit. moyenne 22 kmh/h

Relevés météo quotidiens pour la station de :

UTC
S: Synop
M: Metar
Loc T°C
(°C)
Td
(°C)
HR
(%)
Vis
(km)
Néb
(octa)
Vent
(km/h)
Pression
(mb)
Précipitations
(mm)
Temps
              MOY
10 min
DIR RAF 1h MESURE VAR SUR 3h    
S 00 h 02h 25.9 17.3 59 20 - 7 15 1011.4 +1.7/3h 0.0/6h - 0.0/3h -
S 01 h 03h 26.5 18.4 61 20 - 13 19 1011.1 +1.0/3h 0.0/1h -
S 02 h 04h 25.1 17.3 62 20 - 4 9 1010.8 +0.1/3h 0.0/1h -
S 03 h 05h 23.9 16.7 64 20 - 6 11 1010.7 -0.8/3h 0.0/3h -
S 04 h 06h 24.9 16.6 60 20 - 9 19 1010.8 -0.4/3h 0.0/1h -
S 05 h 07h 25.1 15.4 55 20 - 7 19 1011.2 +0.4/3h 0.0/1h -
S 06 h 08h 25.3 15.3 54 20 - 2 11 1011.3 +0.6/3h 0.0/12h - 0.0/3h -
S 07 h 09h 28.9 14.3 41 20 - 6 9 1011.5 +0.8/3h 0.0/1h -
S 08 h 10h 30.6 14.2 37 20 - 6 9 1011.1 +0.1/3h 0.0/1h -
S 09 h 11h 31.9 13.2 32 20 - 11 19 1011.2 +0.1/3h 0.0/3h -
S 10 h 12h 35.0 10.8 23 19 - 15 24 1010.7 -0.6/3h 0.0/1h -
S 11 h 13h 35.8 12.1 24 50 - 19 31 1010.7 -0.3/3h 0.0/1h -
S 12 h 14h 36.6 11.4 22 35 - 20 35 1010.1 -0.9/3h 0.0/6h - 0.0/3h -
S 13 h 15h 37.5 11.5 21 19 - 24 39 1009.7 -0.9/3h 0.0/1h -
S 14 h 16h 37.2 13.3 24 35 - 13 33 1009.2 -1.4/3h 0.0/1h -
S 15 h 17h 38.0 11.9 21 30 - 13 20 1009.0 -1.1/3h 0.0/3h -
S 16 h 18h 36.6 13.4 25 50 - 26 43 1008.7 -1.0/3h 0.0/1h -
S 17 h 19h 35.1 13.9 28 40 - 22 37 1009.0 -0.3/3h 0.0/1h -
S 18 h 20h 33.7 14.2 31 40 - 20 39 1009.8 +0.7/3h 0.0/12h - 0.0/3h -
S 19 h 21h 31.4 14.5 36 45 - 7 19 1010.5 +1.6/3h 0.0/1h -
S 20 h 22h 29.9 13.6 37 50 - 7 24 1010.2 +1.1/3h 0.0/1h -
S 21 h 23h 28.9 13.2 38 50 - 7 22 1010.3 +0.3/3h 0.0/3h -
S 22 h 00h 27.8 13.3 41 50 - 11 24 1010.7 +0.1/3h 0.0/1h -
S 23 h 01h 27.6 13.5 42 50 - 6 19 1010.9 +0.6/3h 0.0/1h -
evolution des temperatures
cumul des precipitations
vent moyen et rafales
pression atmospherique

Un tiret (-) signifie que les données ne sont pas disponibles.

Passez la souris sur les pictos temps pour avoir plus de précisions. Passez les flèches sur l'icône de la direction du vent pour voir la direction précise en degrés.

Les données de l'heure en cours sont disponibles à partir de H+15 minutes.


S signifie station Synop, plus complète qu'une station Metar (M). Il y a +1h de différence entre l'heure UTC et l'heure légale en hiver et +2h en été.

Td est la mesure du point de rosée.

HR est l'humidité relative/p>

Vis est la visibilité

Néb est la nébulosité du ciel (couverture nuageuse) exprimée en octas (de 0/8 à 8/8).

Vent moy 10 min donne le vent moyen sur les 10 minutes qui précèdent le relevé.

Vent raf 1h donne la rafale maximale mesurée dans l'heure qui précède le relevé.


Les données les plus anciennes remontent à avril 2014.

Les données présentées sur cette page proviennent des stations météo officielles. Les relevés sont effectués aux normes en vigueur (anémomètre à 10m de haut, thermomètre sous abri normalisé à 2m du sol...)

Météo 60 décline toute responsabilité en cas d'absence de données, d'erreurs, de mauvaise utilisation ou interprétation et n'est pas habilité à fournir des certificats intempéries.